Stations météo

réclame
Mon MeteoGroup
Garmisch-Partenkirchen, Allemagne (10963): Température de l'air & dewpoint: 17.07.2018 07:00:00 - 23.07.2018 07:00:00 (CEST)Garmisch-Partenkirchen, Allemagne (10963): Température de l'air 5cm & Température de l'air -5cm: 17.07.2018 07:00:00 - 23.07.2018 07:00:00 (CEST)Garmisch-Partenkirchen, Allemagne (10963): Température de l'air -20cm & Température de l'air -100cm: 17.07.2018 07:00:00 - 23.07.2018 07:00:00 (CEST)Garmisch-Partenkirchen, Allemagne (10963): Vitesse du vent & gusts: 17.07.2018 07:00:00 - 23.07.2018 07:00:00 (CEST)Garmisch-Partenkirchen, Allemagne (10963): Direction du vent: 17.07.2018 07:00:00 - 23.07.2018 07:00:00 (CEST)Garmisch-Partenkirchen, Allemagne (10963): reduced air pressure: 17.07.2018 07:00:00 - 23.07.2018 07:00:00 (CEST)Garmisch-Partenkirchen, Allemagne (10963): visibility: 17.07.2018 07:00:00 - 23.07.2018 07:00:00 (CEST)Garmisch-Partenkirchen, Allemagne (10963): Ensoleillement: 17.07.2018 07:00:00 - 23.07.2018 07:00:00 (CEST)Garmisch-Partenkirchen, Allemagne (10963): Quantités de précipitations: 17.07.2018 07:00:00 - 23.07.2018 07:00:00 (CEST)
Date & Time tt [°C] td [°C] tt 5cm [°C] tt -5cm [°C] tt -20cm [°C] tt -100cm [°C] ff [km/h] ff [knt] fx [km/h] fx [knt] dd ppp [hPa] vv [km] sd [min] rr [mm]
23.07.2018 07:00:00 14,6 14,2 14,6 16,7 18,2 18,1 2 1 5 3 SW 1017,0 12 0 0,4
23.07.2018 06:00:00 14,4 14,1 14,3 16,6 18,3 18,0 0 0 4 2 N 1016,6 3,1 0 6,6
23.07.2018 05:00:00 14,6 14,3 14,5 17,1 18,7 18,1 0 0 4 2 N 1016,0 2,6 0 0,8
23.07.2018 04:00:00 14,7 14,4 14,5 17,2 18,8 18,1 0 0 7 4 N 1016,0 9 0 1,2
23.07.2018 03:00:00 14,5 14,2 14,4 17,4 19,0 18,1 3 2 5 3 SW 1016,2 2,5 0 2,2
23.07.2018 02:00:00 14,7 14,4 14,6 17,7 19,3 18,1 3 1 5 3 SSW 1016,4 1,6 0 1,4
23.07.2018 01:00:00 15,0 14,6 14,9 17,9 19,5 18,1 2 1 6 3 SSW 1016,4 8 0 1,3
23.07.2018 00:00:00 15,0 14,6 15,0 18,2 19,7 18,1 2 1 4 2 SW 1016,4 2,7 0 1,1
22.07.2018 23:00:00 15,3 14,8 15,1 18,5 19,9 18,1 2 1 6 3 W 1016,1 9 0 0,3
22.07.2018 22:00:00 15,5 14,9 15,3 19,0 20,1 18,1 2 1 4 2 WSW 1015,7 7 0 0,3
22.07.2018 21:00:00 16,1 15,3 15,8 19,5 20,3 18,1 3 2 8 4 SSW 1015,0 21 0 0,0
22.07.2018 20:00:00 16,8 15,4 16,4 20,1 20,4 18,1 2 1 5 3 WSW 1014,4 23 0 0,2
22.07.2018 19:00:00 17,8 15,2 17,6 20,7 20,4 18,1 2 1 4 2 SSW 1014,0 27 0 0,0
22.07.2018 18:00:00 18,3 14,0 18,4 21,3 20,3 18,1 2 1 6 3 SSW 1013,7 58 0 0,0
22.07.2018 17:00:00 18,7 13,4 19,7 21,4 20,2 18,1 3 2 9 5 SSE 1013,9 61 0 0,0
22.07.2018 16:00:00 17,8 13,3 18,8 20,8 20,0 18,1 4 2 12 6 NE 1014,1 56 0 0,0
22.07.2018 15:00:00 17,9 14,6 17,8 20,8 19,9 18,1 4 2 11 6 ENE 1014,0 47 0 0,0
22.07.2018 14:00:00 17,9 14,0 18,0 21,0 19,6 18,1 4 2 9 5 NNE 1014,0 61 0 0,0
22.07.2018 13:00:00 17,4 14,4 17,6 19,8 19,5 18,1 3 1 5 3 SW 1014,2 54 0 0,0
22.07.2018 12:00:00 16,6 14,4 16,6 19,2 19,5 18,1 2 1 6 3 N 1014,4 50 0 0,0
22.07.2018 11:00:00 16,2 14,5 16,1 18,9 19,4 18,1 2 1 7 4 ENE 1014,4 37 0 0,0
22.07.2018 10:00:00 15,9 14,6 15,8 18,6 19,5 18,1 3 2 6 3 NNE 1014,2 35 0 0,0
22.07.2018 09:00:00 15,4 14,9 15,1 18,2 19,6 18,1 0 0 6 3 N 1014,2 11 0 0,0
22.07.2018 08:00:00 15,0 14,0 15,0 18,1 19,7 18,1 2 1 7 4 NNE 1014,0 38 0 0,0
22.07.2018 07:00:00 14,4 14,0 14,5 17,9 19,8 18,1 0 0 4 2 N 1013,9 20 0 0,0
22.07.2018 06:00:00 14,2 13,8 14,2 18,1 20,0 18,1 0 0 4 2 N 1014,0 19 0 0,0
22.07.2018 05:00:00 14,5 14,1 14,5 18,2 20,2 18,1 2 1 5 3 S 1013,9 10 0 0,0
22.07.2018 04:00:00 14,6 14,1 14,6 18,4 20,5 18,1 3 1 4 2 NNE 1013,7 21 0 0,0
22.07.2018 03:00:00 14,7 14,4 14,8 18,7 20,7 18,1 2 1 5 3 W 1014,0 15 0 0,0
22.07.2018 02:00:00 14,7 14,3 14,7 18,9 21,0 18,1 3 2 5 3 WSW 1014,4 7 0 0,0
22.07.2018 01:00:00 14,6 14,2 14,5 19,1 21,3 18,0 3 2 6 3 SSW 1014,5 5 0 1,5
22.07.2018 00:00:00 14,8 14,4 14,8 19,6 21,7 18,0 0 0 5 3 N 1014,3 5 0 0,7
21.07.2018 23:00:00 14,9 14,4 15,0 20,0 22,0 18,0 2 1 8 4 SW 1014,4 20 0 0,0
21.07.2018 22:00:00 15,0 14,5 15,0 20,5 22,4 18,0 5 3 7 4 SSW 1014,0 39 0 0,2
21.07.2018 21:00:00 15,5 14,8 15,6 21,2 22,8 18,0 3 1 6 4 E 1013,4 11 0 1,4
21.07.2018 20:00:00 15,8 14,7 15,6 22,0 23,2 18,0 3 1 21 12 WNW 1012,8 4,0 0 5,4
21.07.2018 19:00:00 19,7 14,1 17,4 24,5 23,2 18,0 7 4 15 8 NE 1010,4 10 0 0,0
21.07.2018 18:00:00 20,7 14,0 21,9 26,3 23,0 18,0 7 4 14 7 E 1010,2 70 24 0,0
21.07.2018 17:00:00 20,7 14,0 24,4 25,8 22,6 18,0 5 3 11 6 ENE 1010,4 70 2 0,0
21.07.2018 16:00:00 20,2 13,9 23,3 25,8 22,2 18,0 6 3 16 9 NE 1010,8 60 26 0,0
21.07.2018 15:00:00 19,4 14,3 20,4 24,6 21,8 18,0 8 5 18 10 NE 1011,3 70 0 0,0
21.07.2018 14:00:00 18,9 14,5 19,6 24,0 21,4 17,9 6 3 13 7 NNE 1011,8 61 0 0,0
21.07.2018 13:00:00 18,1 14,4 18,7 22,9 21,1 17,9 8 4 11 6 NE 1012,3 34 0 0,0
21.07.2018 12:00:00 17,9 15,5 18,1 21,5 20,9 17,9 0 0 6 3 N 1012,5 14 0 0,1
21.07.2018 11:00:00 16,7 14,1 16,8 20,6 20,9 17,9 4 2 8 5 NNE 1012,8 23 0 0,1
21.07.2018 10:00:00 16,1 14,8 16,0 19,7 20,9 17,9 5 3 8 4 ENE 1013,0 11 0 0,6
21.07.2018 09:00:00 15,7 15,0 15,8 19,2 21,2 17,9 0 0 5 3 N 1012,8 3,5 0 1,6
21.07.2018 08:00:00 15,3 14,9 15,3 19,2 21,4 17,9 3 1 10 5 NNW 1012,5 10 0 0,9
21.07.2018 07:00:00 15,0 14,6 15,1 19,3 21,7 17,9 4 2 7 4 SW 1012,6 2,7 0 0,3
21.07.2018 06:00:00 15,1 14,6 15,1 19,5 22,0 17,9 2 1 6 3 W 1012,5 7 0 0,5
21.07.2018 05:00:00 15,2 14,6 15,1 19,8 22,3 17,8 0 0 6 4 N 1012,3 16 0 0,0
21.07.2018 04:00:00 15,1 14,6 15,1 20,1 22,7 17,8 0 0 6 4 N 1012,2 9 0 0,0
21.07.2018 03:00:00 15,1 14,6 15,0 20,5 23,1 17,8 5 3 10 5 SSW 1012,5 10 0 0,1
21.07.2018 02:00:00 15,4 14,9 15,4 20,9 23,5 17,8 4 2 9 5 N 1012,9 16 0 0,0
21.07.2018 01:00:00 15,3 14,9 15,3 21,4 24,0 17,8 4 2 7 4 WSW 1013,6 2,9 0 0,0
21.07.2018 00:00:00 16,0 15,4 16,0 22,0 24,5 17,8 3 2 10 6 N 1014,3 18 0 0,0
20.07.2018 23:00:00 16,3 15,7 16,2 22,6 25,1 17,8 5 3 11 6 ENE 1013,9 15 0 0,0
20.07.2018 22:00:00 16,2 15,8 16,5 23,4 25,7 17,8 3 2 8 4 W 1013,4 2,4 0 0,0
20.07.2018 21:00:00 16,7 16,3 16,9 24,3 26,4 17,8 2 1 12 6 W 1012,9 10 0 0,0
20.07.2018 20:00:00 16,9 16,3 17,0 25,4 27,1 17,8 7 4 17 9 SSW 1013,4 8 0 6,8
20.07.2018 19:00:00 17,5 16,6 17,7 28,8 27,5 17,7 12 7 28 15 WSW 1012,8 1,0 0 3,6
20.07.2018 18:00:00 25,0 13,5 25,0 31,5 27,5 17,7 5 3 11 6 NE 1009,4 62 0 0,0
20.07.2018 17:00:00 25,1 14,7 27,1 33,1 27,1 17,7 5 3 15 8 E 1009,6 57 6 0,0
20.07.2018 16:00:00 25,3 15,8 28,6 35,0 26,4 17,7 10 6 19 11 NE 1010,1 57 53 0,0
20.07.2018 15:00:00 24,8 13,0 31,2 32,6 25,8 17,7 9 5 23 12 E 1011,0 46 29 0,0
20.07.2018 14:00:00 25,5 12,1 26,0 32,5 25,0 17,7 5 3 24 13 NNE 1010,6 57 23 0,0
20.07.2018 13:00:00 26,9 12,9 32,2 32,9 23,9 17,7 16 9 28 15 NE 1010,2 30 56 0,0
20.07.2018 12:00:00 26,7 11,9 31,8 30,3 22,8 17,7 12 6 19 10 NE 1010,7 34 57 0,0
20.07.2018 11:00:00 26,1 12,2 29,1 27,3 22,1 17,7 4 2 9 5 SE 1011,1 28 59 0,0
20.07.2018 10:00:00 22,8 12,1 24,0 23,8 21,7 17,6 5 3 9 5 S 1012,3 41 55 0,0
20.07.2018 09:00:00 20,3 12,1 21,3 21,0 21,7 17,6 0 0 4 2 N 1013,3 39 16 0,0
20.07.2018 08:00:00 16,9 12,8 17,4 20,0 21,9 17,6 3 2 8 4 S 1014,5 35 32 0,0
20.07.2018 07:00:00 14,5 12,1 14,4 19,4 22,3 17,6 3 1 6 4 WSW 1015,4 31 10 0,0
20.07.2018 06:00:00 13,0 11,5 13,0 19,4 22,7 17,6 3 2 9 5 WSW 1015,9 32 0 0,0
20.07.2018 05:00:00 12,2 11,1 11,7 19,8 23,2 17,6 5 3 11 6 SW 1016,3 18 0 0,0
20.07.2018 04:00:00 12,4 11,2 12,4 20,4 23,7 17,6 4 2 6 3 SW 1016,6 20 0 0,0
20.07.2018 03:00:00 12,7 11,4 12,2 21,2 24,3 17,6 4 2 10 6 SSW 1016,9 27 0 0,0
20.07.2018 02:00:00 13,1 11,4 12,6 22,0 24,9 17,6 6 4 11 6 SW 1017,3 23 0 0,0
20.07.2018 01:00:00 13,5 11,8 13,0 23,0 25,5 17,6 3 1 6 4 SW 1017,3 25 0 0,0
20.07.2018 00:00:00 14,5 12,3 13,7 24,1 26,1 17,6 3 1 9 5 SW 1016,9 30 0 0,0
19.07.2018 23:00:00 15,9 12,7 15,1 25,5 26,7 17,6 3 2 8 4 SW 1016,2 36 0 0,0
19.07.2018 22:00:00 17,9 12,7 16,6 27,1 27,3 17,6 2 1 6 3 W 1015,4 28 0 0,0
19.07.2018 21:00:00 20,3 12,5 18,9 29,1 27,7 17,6 2 1 19 11 WNW 1014,2 60 0 0,0
19.07.2018 20:00:00 24,0 10,1 23,3 31,5 27,9 17,6 8 4 21 12 NNE 1012,9 62 39 0,0
19.07.2018 19:00:00 25,7 9,9 29,1 33,5 27,7 17,6 8 5 24 13 NNE 1012,1 65 60 0,0
19.07.2018 18:00:00 26,3 10,4 30,3 34,8 27,2 17,6 11 6 31 17 NNE 1012,1 35 60 0,0
19.07.2018 17:00:00 26,8 10,8 31,9 35,4 26,5 17,6 13 7 29 16 NNE 1012,2 44 60 0,0
19.07.2018 16:00:00 26,7 11,8 32,4 35,5 25,5 17,6 15 8 31 17 NE 1012,7 34 60 0,0
19.07.2018 15:00:00 26,2 11,9 31,7 34,7 24,4 17,6 13 7 27 15 NE 1013,1 37 60 0,0
19.07.2018 14:00:00 25,7 12,4 31,2 33,1 23,2 17,5 13 7 29 16 NE 1013,6 39 60 0,0
19.07.2018 13:00:00 24,8 12,2 29,9 31,2 22,0 17,5 17 9 32 17 NE 1014,0 30 60 0,0
19.07.2018 12:00:00 24,5 13,7 29,4 28,7 20,9 17,5 13 7 24 13 NE 1014,1 29 60 0,0
19.07.2018 11:00:00 22,7 12,6 26,2 25,2 20,0 17,5 11 6 22 12 ENE 1014,8 43 60 0,0
19.07.2018 10:00:00 22,3 11,4 23,7 21,8 19,5 17,5 5 3 11 6 E 1014,9 46 60 0,0
19.07.2018 09:00:00 19,6 11,6 19,3 18,6 19,5 17,5 4 2 9 5 SSW 1015,8 38 60 0,0
19.07.2018 08:00:00 16,6 12,5 13,5 16,4 19,8 17,5 4 2 8 4 S 1016,9 31 60 0,0
19.07.2018 07:00:00 11,6 10,9 10,7 16,2 20,2 17,5 3 2 7 4 SW 1018,5 16 11 0,0
19.07.2018 06:00:00 10,5 10,0 9,7 16,6 20,7 17,5 4 2 7 4 SSW 1018,9 23 0 0,0
19.07.2018 05:00:00 11,1 10,4 10,0 17,2 21,1 17,5 2 1 10 5 NW 1018,8 23 0 0,0
19.07.2018 04:00:00 12,0 10,8 10,9 17,9 21,7 17,5 3 2 13 7 W 1018,5 21 0 0,0
19.07.2018 03:00:00 11,8 10,8 11,0 18,7 22,2 17,5 5 3 11 6 SW 1018,6 13 0 0,0
19.07.2018 02:00:00 12,6 11,5 11,8 19,5 22,8 17,5 0 0 9 5 N 1018,4 19 0 0,0
19.07.2018 01:00:00 13,3 12,0 12,4 20,4 23,4 17,5 3 1 6 3 W 1018,1 19 0 0,0
19.07.2018 00:00:00 14,0 12,4 13,0 21,5 24,0 17,6 2 1 5 3 SW 1017,8 30 0 0,0
18.07.2018 23:00:00 15,5 13,0 14,5 22,8 24,6 17,6 2 1 5 3 S 1016,9 36 0 0,0
18.07.2018 22:00:00 17,4 13,8 15,8 24,4 25,1 17,6 3 2 4 2 WSW 1016,0 32 0 0,0
18.07.2018 21:00:00 20,5 13,7 18,7 26,3 25,5 17,6 3 2 6 3 N 1014,3 59 0 0,0
18.07.2018 20:00:00 23,9 12,6 22,5 28,0 25,8 17,6 3 1 11 6 W 1013,3 60 9 0,0
18.07.2018 19:00:00 24,3 10,9 24,1 30,0 25,8 17,6 6 3 16 9 NNE 1013,1 61 16 0,0
18.07.2018 18:00:00 25,7 10,8 29,4 32,7 25,3 17,6 9 5 22 12 NNE 1013,0 70 54 0,0
18.07.2018 17:00:00 26,2 11,4 31,7 33,3 24,5 17,6 13 7 23 13 NNE 1013,0 39 60 0,0
18.07.2018 16:00:00 26,0 11,3 31,8 32,9 23,6 17,6 12 6 22 12 NNE 1013,3 44 59 0,0
18.07.2018 15:00:00 25,8 11,0 31,2 31,6 22,6 17,6 11 6 23 12 NE 1013,7 38 59 0,0
18.07.2018 14:00:00 25,2 11,9 29,6 28,9 21,7 17,6 8 5 22 12 ENE 1014,3 44 41 0,0
18.07.2018 13:00:00 23,6 11,1 25,5 28,1 20,8 17,6 10 5 21 11 NE 1015,2 57 41 0,0
18.07.2018 12:00:00 23,3 11,3 26,0 26,5 19,8 17,6 8 5 17 9 NE 1015,5 61 51 0,0
18.07.2018 11:00:00 23,1 11,3 25,3 23,2 19,1 17,6 4 2 9 5 NE 1015,7 50 41 0,0
18.07.2018 10:00:00 21,3 12,8 21,6 21,3 18,7 17,6 4 2 8 5 SSE 1016,6 52 60 0,0
18.07.2018 09:00:00 17,4 13,6 16,7 17,7 18,6 17,6 2 1 6 3 WSW 1018,1 40 34 0,0
18.07.2018 08:00:00 15,1 13,6 14,2 16,7 18,7 17,6 3 1 5 3 SW 1018,7 17 11 0,0
18.07.2018 07:00:00 13,2 12,5 12,9 16,5 19,0 17,6 2 1 10 5 W 1019,3 16 2 0,0
18.07.2018 06:00:00 13,2 12,8 12,9 16,7 19,2 17,6 4 2 6 3 WSW 1019,2 6 0 0,0
18.07.2018 05:00:00 13,4 12,9 12,9 16,9 19,5 17,6 2 1 8 5 WSW 1019,0 16 0 0,0
18.07.2018 04:00:00 13,6 12,9 13,3 17,1 19,8 17,6 3 2 8 4 N 1018,9 21 0 0,6
18.07.2018 03:00:00 13,3 11,5 13,0 17,2 20,2 17,6 2 1 6 3 NE 1018,9 49 0 0,0
18.07.2018 02:00:00 12,8 11,7 12,2 17,6 20,6 17,6 2 1 6 3 NNW 1019,1 33 0 0,0
18.07.2018 01:00:00 13,2 11,8 12,0 18,3 21,0 17,6 3 2 5 3 NW 1019,0 43 0 0,0
18.07.2018 00:00:00 15,4 12,1 13,4 19,4 21,4 17,6 3 1 10 5 N 1018,1 65 0 0,0
17.07.2018 23:00:00 16,1 12,9 15,5 20,1 21,7 17,6 5 3 11 6 SW 1017,7 61 0 0,0
17.07.2018 22:00:00 16,9 12,5 16,0 20,9 22,1 17,6 4 2 10 5 WSW 1018,1 57 0 0,0
17.07.2018 21:00:00 17,3 12,2 16,6 22,0 22,4 17,6 2 1 9 5 WNW 1016,8 70 0 0,0
17.07.2018 20:00:00 19,9 11,7 18,9 23,9 22,4 17,6 3 2 10 5 NW 1015,3 70 44 0,0
17.07.2018 19:00:00 22,1 11,4 24,7 25,3 22,2 17,6 5 3 18 10 S 1014,5 70 58 0,0
17.07.2018 18:00:00 21,5 10,3 24,5 25,0 22,0 17,6 9 5 19 11 SSW 1015,1 70 40 0,0
17.07.2018 17:00:00 19,4 9,5 19,8 23,4 22,0 17,6 7 4 27 15 WNW 1016,1 70 0 0,0
17.07.2018 16:00:00 19,4 11,3 20,2 25,3 21,7 17,6 6 4 21 11 S 1016,1 70 25 0,0
17.07.2018 15:00:00 16,3 12,3 16,4 23,6 21,5 17,6 7 4 29 16 SW 1016,9 70 0 0,4
17.07.2018 14:00:00 21,1 11,4 24,1 25,2 21,1 17,6 6 4 16 9 NE 1014,9 63 24 0,0
17.07.2018 13:00:00 19,8 12,5 20,8 23,3 20,7 17,6 5 3 19 10 W 1015,4 70 6 0,1
17.07.2018 12:00:00 23,6 12,5 27,9 23,5 20,3 17,6 7 4 15 8 ESE 1013,6 70 18 0,0
17.07.2018 11:00:00 21,1 12,2 21,6 22,5 19,8 17,6 4 2 14 8 ENE 1014,2 70 14 0,0
17.07.2018 10:00:00 21,1 13,7 21,9 21,1 19,4 17,6 6 3 14 7 ENE 1013,8 57 42 0,0
17.07.2018 09:00:00 18,6 13,2 17,0 19,1 19,3 17,6 4 2 8 4 ENE 1014,7 52 43 0,0
17.07.2018 08:00:00 15,0 13,8 14,7 17,2 19,5 17,5 0 0 4 2 N 1015,7 23 10 0,0
17.07.2018 07:00:00 13,4 12,9 12,9 17,0 19,8 17,5 2 1 4 2 W 1015,7 18 2 0,0

tt = Température de l'air
td = dewpoint
tt 5cm = Température de l'air 5cm
tt -5cm = Température de l'air -5cm
tt -20cm = Température de l'air -20cm
tt -100cm = Température de l'air -100cm
ff = Vitesse du vent
fx = gusts
dd = Direction du vent
ppp = reduced air pressure
vv = visibility
sd = Ensoleillement
rr = Quantités de précipitations

stations d'obs. à proximité